[[{"header":{"parameterUnit":"m.s-1","parameterCategory":1,"la1":30.2991,"la2":30.254,"lo1":-89.0895,"lo2":-89.0444,"dy":0.0017,"dx":0.0017,"nx":28,"ny":28,"refTime":"2024-07-13T21:00:00:Z","depth":0,"parameterNumber":2,"parameterNumberName":"U-component_of_WINDS"},"data":[0,0,0,0,0,0,0,0,0,0,0,0,0,0,0,0,0,0,0,0,0,0,0,0,0,0,0,0,0,0,0,0,0,0,0,0,0,0,0,0,0,0,0,0,0,0,0,0,0,0,0,0,0,0,0,0,0,0,1.4711,1.4714,0,1.4928,1.4931,1.4933,1.5007,1.5007,1.5006,1.5005,1.5234,1.5241,1.5248,0,0,0,0,0,0,0,0,0,0,0,0,0,1.4367,1.4373,1.4711,1.4714,1.4717,1.4928,1.4931,1.4934,1.5008,1.5006,1.5005,1.5004,1.5232,1.524,1.5248,0,0,0,0,0,0,0,0,0,0,0,0,0,1.4543,1.4374,1.4711,1.4779,1.4787,1.4927,1.4931,1.4935,1.5008,1.5006,1.5005,1.5004,1.5229,1.5239,1.525,1.5341,0,0,1.5281,1.5286,0,0,0,0,0,0,0,0,1.4533,1.4556,1.4766,1.4774,1.4784,1.4939,1.4894,1.5071,1.5008,1.4924,1.5005,1.5003,1.5138,1.5155,1.5199,1.5351,1.5361,1.5282,1.5289,1.5293,1.5296,0,0,0,0,0,0,0,1.4521,1.4547,1.4797,1.4769,1.478,1.48,1.4824,1.4928,1.5036,1.4931,1.4937,1.4962,1.5142,1.5189,1.5205,1.5365,1.5282,1.5291,1.5298,1.5302,1.5604,1.5605,0,0,0,0,0,0,1.4496,1.4536,1.479,1.4804,1.4652,1.4808,1.4834,1.4891,1.5035,1.5056,1.4962,1.4964,1.5172,1.5193,1.5214,1.5331,1.5293,1.5303,1.5309,1.5602,1.5604,1.5606,0,0,0,0,0,0,1.4489,1.4518,1.4782,1.4672,1.4707,1.4815,1.4878,1.4896,1.4943,1.5058,1.5079,1.499,1.5172,1.5199,1.5308,1.5339,1.5307,1.5317,1.56,1.5603,1.5605,1.5564,0,0,0,0,0,0,1.4478,1.4515,1.4549,1.4672,1.4712,1.487,1.488,1.4901,1.496,1.4964,1.509,1.5109,1.5173,1.5292,1.5319,1.5353,1.5325,1.5597,1.5601,1.5604,1.5563,1.5565,1.5567,0,0,0,0,0,1.4466,1.453,1.455,1.4581,1.4757,1.4872,1.4896,1.4965,1.4962,1.4998,1.5073,1.5105,1.5331,1.5303,1.5333,1.5371,1.5596,1.56,1.5604,1.5562,1.5565,1.5566,0,0,0,0,0,0,1.4411,1.4548,1.4572,1.4677,1.4762,1.4884,1.4932,1.4965,1.5055,1.5055,1.514,1.5168,1.5271,1.5333,1.5298,1.5468,1.5466,1.5476,1.5424,1.5427,1.5428,1.5412,1.5334,0,0,0,0,0,1.441,1.449,1.4607,1.4689,1.473,1.4823,1.4876,1.4922,1.5015,1.5052,1.5134,1.5225,1.5316,1.5375,1.5466,1.5572,1.5602,1.5613,1.5615,1.5616,1.5624,1.5686,1.5693,1.5619,1.5619,1.5619,0,0,1.4412,1.4496,1.4542,1.468,1.4751,1.4834,1.4853,1.494,1.5003,1.5066,1.5173,1.5237,1.5344,1.5452,1.5504,1.5506,1.5651,1.5621,1.5621,1.5629,1.5691,1.5698,1.5704,1.5622,1.5621,1.5621,0,0,1.4456,1.4527,1.4604,1.4674,1.4781,1.4843,1.4861,1.4978,1.5022,1.5131,1.518,1.5257,1.5413,1.5487,1.5545,1.5617,1.5651,1.5644,1.5654,1.5713,1.5719,1.5725,1.5751,1.576,1.5652,1.5652,1.5652,0,1.4445,1.4569,1.464,1.4724,1.4783,1.4841,1.4921,1.4987,1.5118,1.516,1.5159,1.5356,1.5432,1.5559,1.5576,1.5621,1.5646,1.5631,1.5712,1.5718,1.5725,1.5751,1.5761,1.565,1.5651,1.5651,1.5651,0,1.455,1.4636,1.4685,1.4808,1.4874,1.4955,1.504,1.5098,1.5139,1.5201,1.5312,1.5405,1.5515,1.5549,1.559,1.5682,1.568,1.5695,1.5695,1.5729,1.5755,1.5766,1.5648,1.5649,1.5649,1.565,0,0,1.4567,1.4727,1.4744,1.4801,1.4923,1.4992,1.5076,1.5182,1.5231,1.532,1.5394,1.5524,1.5539,1.5605,1.5655,1.5707,1.5759,1.5716,1.572,1.5721,1.5867,1.5856,1.5866,1.5782,1.5784,1.5786,1.5859,0,1.4627,1.4778,1.4844,1.4966,1.5047,1.5104,1.5178,1.5262,1.5322,1.5402,1.547,1.5561,1.5572,1.5612,1.5666,1.5741,1.579,1.5737,1.5854,1.5857,1.5826,1.588,1.5868,1.5933,1.5869,1.5871,1.5872,0,1.4719,1.4805,1.4935,1.5047,1.5084,1.5148,1.5251,1.5325,1.5423,1.5463,1.5536,1.5584,1.5677,1.567,1.58,1.5763,1.5815,1.5859,1.5863,1.5878,1.5867,1.5897,1.5955,1.5965,1.5889,1.5888,1.5887,0,1.4718,1.4868,1.4965,1.5012,1.5145,1.5189,1.5248,1.5343,1.5403,1.5493,1.5533,1.5634,1.569,1.5768,1.5842,1.583,1.5966,1.5965,1.6004,1.6002,1.6032,1.6029,1.6099,1.6063,1.6063,1.6063,1.6062,0,1.478,1.4857,1.4966,1.5026,1.5115,1.519,1.5277,1.534,1.5424,1.5499,1.5554,1.5624,1.5717,1.5799,1.5858,1.5958,1.5983,1.602,1.6035,1.6015,1.6011,1.6051,1.6049,1.6065,1.6065,1.6064,1.6064,0,1.4795,1.4871,1.498,1.5097,1.5128,1.5188,1.529,1.5351,1.5414,1.5507,1.5534,1.5633,1.5733,1.5814,1.5945,1.5985,1.6089,1.6106,1.6055,1.6064,1.6099,1.6095,1.6199,1.6217,1.6167,1.6167,1.6167,0,1.4829,1.4889,1.5012,1.5065,1.5121,1.5206,1.5266,1.5344,1.5405,1.552,1.5568,1.567,1.5757,1.5913,1.5998,1.6099,1.6119,1.6149,1.6135,1.6114,1.6121,1.6117,1.6124,1.615,1.6151,1.6151,1.6151,0,1.4882,1.4917,1.5001,1.5098,1.5168,1.5249,1.5332,1.5372,1.5465,1.5532,1.5632,1.5699,1.5831,1.5933,1.6043,1.6106,1.6145,1.6154,1.6169,1.615,1.6119,1.6138,1.606,1.6152,1.6152,1.6152,1.6152,1.6152,1.4909,1.4966,1.506,1.5152,1.5222,1.5298,1.5361,1.5431,1.5516,1.5628,1.5669,1.5773,1.587,1.6021,1.6084,1.6167,1.6172,1.6193,1.6199,1.6203,1.6201,1.6104,1.6188,1.6188,1.6188,1.6188,1.6188,0,1.4966,1.503,1.5113,1.5226,1.5299,1.5326,1.5419,1.5479,1.5569,1.5655,1.5738,1.5854,1.5953,1.6046,1.615,1.62,1.622,1.6225,1.6223,1.6237,1.619,1.6167,1.6206,1.6206,1.6206,1.6206,1.6206,1.6206,1.5004,1.5102,1.5147,1.528,1.5345,1.5445,1.5495,1.5567,1.5636,1.5762,1.5844,1.5903,1.5993,1.6104,1.6197,1.6222,1.6258,1.6258,1.6288,1.6243,1.624,1.6237,1.6216,1.6265,1.6265,1.6328,1.6328,1.6328]},{"header":{"parameterUnit":"m.s-1","parameterCategory":1,"la1":30.2991,"la2":30.254,"lo1":-89.0895,"lo2":-89.0444,"dy":0.0017,"dx":0.0017,"nx":28,"ny":28,"refTime":"2024-07-13T21:00:00:Z","depth":0,"parameterNumber":3,"parameterNumberName":"V-component_of_WINDS"},"data":[0,0,0,0,0,0,0,0,0,0,0,0,0,0,0,0,0,0,0,0,0,0,0,0,0,0,0,0,0,0,0,0,0,0,0,0,0,0,0,0,0,0,0,0,0,0,0,0,0,0,0,0,0,0,0,0,0,0,2.7958,2.7958,0,2.8004,2.8005,2.8005,2.7957,2.7955,2.7953,2.7951,2.7994,2.7997,2.8,0,0,0,0,0,0,0,0,0,0,0,0,0,2.7822,2.7824,2.7958,2.7958,2.7959,2.8004,2.8005,2.8005,2.7957,2.7955,2.7953,2.7951,2.7993,2.7996,2.8,0,0,0,0,0,0,0,0,0,0,0,0,0,2.7876,2.7825,2.7958,2.794,2.7939,2.8004,2.8005,2.8006,2.7958,2.7955,2.7952,2.795,2.7992,2.7996,2.8,2.8083,0,0,2.8013,2.8015,0,0,0,0,0,0,0,0,2.7873,2.7881,2.7942,2.7942,2.7941,2.7972,2.7972,2.8031,2.7958,2.7951,2.7951,2.7948,2.7989,2.7993,2.8008,2.8085,2.8086,2.8014,2.8016,2.8018,2.8019,0,0,0,0,0,0,0,2.7869,2.7878,2.7976,2.7943,2.7942,2.7929,2.7933,2.7983,2.7984,2.7951,2.7948,2.7954,2.7987,2.8004,2.8008,2.8087,2.8014,2.8017,2.802,2.8022,2.8233,2.8236,0,0,0,0,0,0,2.7868,2.7876,2.7974,2.7977,2.7899,2.7933,2.7939,2.7965,2.7984,2.7984,2.7957,2.7952,2.7998,2.8003,2.801,2.8107,2.8018,2.8022,2.8025,2.823,2.8234,2.8237,0,0,0,0,0,0,2.7865,2.7877,2.7973,2.7926,2.7937,2.7939,2.7968,2.7967,2.7983,2.7988,2.7987,2.7973,2.7996,2.8004,2.8065,2.8108,2.8024,2.8028,2.8227,2.8231,2.8235,2.8302,0,0,0,0,0,0,2.7861,2.7877,2.7909,2.7927,2.794,2.8029,2.7971,2.797,2.7991,2.7986,2.8003,2.8004,2.7994,2.8059,2.8069,2.8112,2.8031,2.8223,2.8229,2.8234,2.8296,2.8309,2.8319,0,0,0,0,0,2.7857,2.7925,2.7911,2.7923,2.798,2.8032,2.8039,2.8028,2.7995,2.8027,2.803,2.8003,2.8102,2.8066,2.8077,2.8122,2.822,2.8227,2.8234,2.8291,2.8306,2.8319,0,0,0,0,0,0,2.791,2.7927,2.7912,2.7988,2.8009,2.8023,2.8063,2.8044,2.8073,2.8066,2.805,2.8054,2.812,2.8127,2.8086,2.8202,2.8155,2.8165,2.8195,2.8209,2.8221,2.8217,2.8035,0,0,0,0,0,2.7931,2.7973,2.7984,2.805,2.8062,2.8061,2.8083,2.8073,2.8093,2.8101,2.8109,2.8128,2.8163,2.8187,2.8219,2.8297,2.83,2.8334,2.8345,2.8354,2.8362,2.8404,2.8419,2.826,2.826,2.8259,0,0,2.7973,2.7988,2.8015,2.8062,2.8077,2.8119,2.8069,2.8115,2.8146,2.8108,2.8167,2.8173,2.8193,2.8264,2.8295,2.8271,2.8407,2.8363,2.8371,2.8373,2.8412,2.8427,2.8441,2.8264,2.8263,2.8263,0,0,2.8073,2.8089,2.8146,2.8162,2.8187,2.8186,2.82,2.8217,2.8221,2.828,2.8252,2.8288,2.8349,2.8365,2.8381,2.8487,2.8463,2.8498,2.8557,2.8598,2.861,2.8621,2.8659,2.8673,2.8506,2.8507,2.8507,0,2.8123,2.8187,2.8177,2.8226,2.8247,2.8216,2.8273,2.8289,2.8322,2.8336,2.831,2.8386,2.8398,2.8471,2.8497,2.8512,2.8526,2.8496,2.861,2.8621,2.8631,2.8666,2.8681,2.8511,2.851,2.851,2.8509,0,2.8246,2.8291,2.8334,2.8369,2.8394,2.8447,2.8443,2.847,2.8458,2.8459,2.852,2.8533,2.8568,2.8584,2.8572,2.8656,2.8641,2.8613,2.8565,2.865,2.8683,2.8697,2.8516,2.8515,2.8514,2.8513,0,0,2.8379,2.8409,2.8425,2.8441,2.8466,2.8499,2.855,2.8586,2.8609,2.8633,2.8674,2.8727,2.8702,2.872,2.8709,2.8745,2.8828,2.8712,2.8712,2.8733,2.892,2.8941,2.8957,2.8813,2.8815,2.8817,2.8919,0,2.8479,2.8569,2.8562,2.8646,2.8687,2.866,2.8703,2.8723,2.8726,2.8759,2.8761,2.8799,2.8763,2.8774,2.8808,2.8811,2.8865,2.8803,2.885,2.8851,2.8845,2.8975,2.8997,2.9092,2.8932,2.8934,2.8935,0,2.8607,2.8638,2.8728,2.8747,2.8764,2.8804,2.8837,2.887,2.8891,2.889,2.8912,2.8895,2.8944,2.8897,2.8964,2.8922,2.894,2.8945,2.8948,2.8952,2.8898,2.8981,2.9122,2.9136,2.8956,2.8954,2.8953,0,2.8695,2.8758,2.882,2.8835,2.8859,2.8888,2.8899,2.8917,2.894,2.8968,2.8982,2.9014,2.9032,2.9057,2.9049,2.9015,2.9118,2.907,2.9118,2.9118,2.914,2.9139,2.9285,2.9153,2.9153,2.9152,2.9152,0,2.8807,2.8862,2.886,2.8898,2.8959,2.895,2.901,2.9017,2.9034,2.9072,2.9049,2.9084,2.9072,2.9107,2.9101,2.9157,2.9165,2.9165,2.9163,2.9167,2.9167,2.9179,2.9172,2.9156,2.9155,2.9155,2.9154,0,2.8914,2.8915,2.8981,2.8999,2.9005,2.905,2.9065,2.91,2.9101,2.9149,2.916,2.9161,2.9201,2.9196,2.9239,2.9235,2.9306,2.9295,2.9299,2.9297,2.9345,2.9341,2.9504,2.9525,2.9379,2.9381,2.9382,0,2.8985,2.9028,2.9052,2.9077,2.909,2.913,2.9154,2.9145,2.917,2.9198,2.923,2.9267,2.9297,2.9361,2.9365,2.9398,2.9389,2.9443,2.9393,2.9396,2.9389,2.9387,2.9391,2.9453,2.9455,2.9456,2.9457,0,2.9111,2.911,2.9145,2.9182,2.9211,2.9238,2.9263,2.9284,2.9278,2.9307,2.9349,2.9372,2.9418,2.9455,2.9487,2.9496,2.9476,2.9473,2.9486,2.9491,2.9491,2.9492,2.9326,2.9469,2.9468,2.9467,2.9467,2.9466,2.9202,2.9239,2.9262,2.9302,2.9321,2.9345,2.9379,2.9386,2.9421,2.9459,2.9452,2.9498,2.9518,2.9558,2.9571,2.9606,2.9586,2.9604,2.9609,2.9614,2.962,2.9486,2.9612,2.9611,2.9611,2.9611,2.961,0,2.9326,2.9341,2.9378,2.9415,2.9447,2.9427,2.9454,2.9481,2.9523,2.9544,2.9575,2.9622,2.9659,2.9667,2.9701,2.9728,2.9719,2.9737,2.9735,2.9737,2.9636,2.9621,2.9744,2.9744,2.9743,2.9743,2.9743,2.9743,2.9395,2.9456,2.9458,2.9528,2.9541,2.9588,2.9605,2.9627,2.9644,2.9699,2.973,2.9736,2.9751,2.9787,2.9819,2.982,2.9834,2.9855,2.9853,2.9758,2.9744,2.9732,2.9718,2.9859,2.9859,2.9952,2.9952,2.9953]}]]